Location: Ariel
(45.9570°N, 122.5700°W)
Time: 03:16:14
(UTC-07:00)

Tiros 1 - Pass Details

Date: 26 July 2019
Orbit: 630 x 664 km, 48.4° (Epoch: 21 August)

Event Time Altitude Azimuth Distance (km) Brightness Sun altitude
Rises 12:28:20 0° 249° (WSW) 2,978 10.5 61.6°
Reaches altitude 10° 12:30:40 10° 250° (WSW) 2,071 9.9 61.8°
Maximum altitude 12:35:28 89° 164° (SSE) 667 8.6 62.1°
Drops below altitude 10° 12:40:18 10° 72° (ENE) 2,085 9.9 62.4°
Sets 12:42:39 0° 73° (ENE) 2,999 10.6 62.5°
